Time,TemperatureF,DewpointF,PressureIn,WindDirection,WindDirectionDegrees,WindSpeedMPH,WindSpeedGustMPH,Humidity,HourlyPrecipIn,Conditions,Clouds,dailyrainin,SolarRadiationWatts/m^2,SoftwareType,DateUTC
2013-02-03 00:01:00,31.0,15.0,-100.00,NW,310,3.0,5.0,51,0.00,,,0.10,0.000000,,2013-02-03 07:01:00,
2013-02-03 00:32:00,33.0,14.0,-100.00,West,264,2.0,3.0,45,-99.99,,,0.10,0.000000,,2013-02-03 07:32:00,
2013-02-03 00:42:00,33.0,14.0,-100.00,West,264,2.0,3.0,45,-99.99,,,0.10,0.000000,,2013-02-03 07:42:00,
2013-02-03 00:52:00,33.0,14.0,-100.00,West,264,2.0,3.0,45,-99.99,,,0.10,0.000000,,2013-02-03 07:52:00,
2013-02-03 01:01:00,33.0,14.0,-100.00,West,264,2.0,3.0,45,-99.99,,,0.10,0.000000,,2013-02-03 08:01:00,
2013-02-03 01:02:00,33.0,11.0,-100.00,West,269,1.0,4.0,40,-99.99,,,0.10,0.000000,,2013-02-03 08:02:00,
2013-02-03 01:32:00,33.0,11.0,-100.00,West,269,1.0,4.0,40,-99.99,,,0.10,0.000000,,2013-02-03 08:32:00,
2013-02-03 01:42:00,33.0,11.0,-100.00,West,269,1.0,4.0,40,-99.99,,,0.10,0.000000,,2013-02-03 08:42:00,
2013-02-03 01:52:00,33.0,11.0,-100.00,West,269,1.0,4.0,40,-99.99,,,0.10,0.000000,,2013-02-03 08:52:00,
2013-02-03 02:32:00,32.0,11.0,-100.00,WNW,303,2.0,4.0,41,-99.99,,,0.10,0.000000,,2013-02-03 09:32:00,
2013-02-03 02:42:00,32.0,11.0,-100.00,WNW,303,2.0,4.0,41,-99.99,,,0.10,0.000000,,2013-02-03 09:42:00,
2013-02-03 02:52:00,32.0,11.0,-100.00,WNW,303,2.0,4.0,41,-99.99,,,0.10,0.000000,,2013-02-03 09:52:00,
2013-02-03 03:01:00,32.0,11.0,-100.00,WNW,303,2.0,4.0,41,-99.99,,,0.10,0.000000,,2013-02-03 10:01:00,
2013-02-03 03:32:00,33.0,13.0,-100.00,NW,321,3.0,7.0,43,-99.99,,,0.10,0.000000,,2013-02-03 10:32:00,
2013-02-03 03:42:00,33.0,13.0,-100.00,NW,321,3.0,7.0,43,-99.99,,,0.10,0.000000,,2013-02-03 10:42:00,
2013-02-03 03:52:00,33.0,13.0,-100.00,NW,321,3.0,7.0,43,-99.99,,,0.10,0.000000,,2013-02-03 10:52:00,
2013-02-03 04:01:00,33.0,13.0,-100.00,NW,321,3.0,7.0,43,-99.99,,,0.10,0.000000,,2013-02-03 11:01:00,
2013-02-03 04:02:00,32.0,12.0,-100.00,North,351,2.0,4.0,43,-99.99,,,-99.99,0.000000,,2013-02-03 11:02:00,
2013-02-03 04:32:00,32.0,12.0,-100.00,North,351,2.0,4.0,43,-99.99,,,-99.99,0.000000,,2013-02-03 11:32:00,
2013-02-03 04:42:00,32.0,12.0,-100.00,North,351,2.0,4.0,43,-99.99,,,-99.99,0.000000,,2013-02-03 11:42:00,
2013-02-03 04:52:00,32.0,12.0,-100.00,North,351,2.0,4.0,43,-99.99,,,-99.99,0.000000,,2013-02-03 11:52:00,
2013-02-03 05:02:00,33.0,13.0,-100.00,NW,308,3.0,4.0,44,-99.99,,,0.10,0.000000,,2013-02-03 12:02:00,
2013-02-03 05:32:00,33.0,13.0,-100.00,NW,308,3.0,4.0,44,-99.99,,,0.10,0.000000,,2013-02-03 12:32:00,
2013-02-03 05:42:00,33.0,13.0,-100.00,NW,308,3.0,4.0,44,-99.99,,,0.10,0.000000,,2013-02-03 12:42:00,
2013-02-03 05:53:00,33.0,13.0,-100.00,NW,308,3.0,4.0,44,-99.99,,,0.10,0.000000,,2013-02-03 12:53:00,
2013-02-03 06:02:00,33.0,12.0,-100.00,North,356,2.0,8.0,41,-99.99,,,0.10,0.000000,,2013-02-03 13:02:00,
2013-02-03 06:32:00,33.0,12.0,-100.00,North,356,2.0,8.0,41,-99.99,,,0.10,0.000000,,2013-02-03 13:32:00,
2013-02-03 06:42:00,33.0,12.0,-100.00,North,356,2.0,8.0,41,-99.99,,,0.10,0.000000,,2013-02-03 13:42:00,
2013-02-03 06:52:00,33.0,12.0,-100.00,North,356,2.0,8.0,41,-99.99,,,0.10,0.000000,,2013-02-03 13:52:00,
2013-02-03 07:02:00,29.0,11.0,-100.00,NNW,329,2.0,5.0,47,-99.99,,,0.10,0.000000,,2013-02-03 14:02:00,
2013-02-03 07:32:00,29.0,11.0,-100.00,NNW,329,2.0,5.0,47,-99.99,,,0.10,0.000000,,2013-02-03 14:32:00,
2013-02-03 07:42:00,29.0,11.0,-100.00,NNW,329,2.0,5.0,47,-99.99,,,0.10,0.000000,,2013-02-03 14:42:00,
2013-02-03 07:52:00,29.0,11.0,-100.00,NNW,329,2.0,5.0,47,-99.99,,,0.10,0.000000,,2013-02-03 14:52:00,
2013-02-03 08:02:00,31.0,14.0,-100.00,NW,317,2.0,6.0,48,-99.99,,,0.10,1.000000,,2013-02-03 15:02:00,
2013-02-03 08:33:00,31.0,14.0,-100.00,NW,317,2.0,6.0,48,-99.99,,,0.10,1.000000,,2013-02-03 15:33:00,
2013-02-03 08:42:00,31.0,14.0,-100.00,NW,317,2.0,6.0,48,-99.99,,,0.10,1.000000,,2013-02-03 15:42:00,
2013-02-03 08:52:00,31.0,14.0,-100.00,NW,317,2.0,6.0,48,-99.99,,,0.10,1.000000,,2013-02-03 15:52:00,
2013-02-03 09:02:00,33.0,16.0,-100.00,NNW,335,2.0,7.0,49,-99.99,,,0.10,36.000000,,2013-02-03 16:02:00,
2013-02-03 09:33:00,33.0,16.0,-100.00,NNW,335,2.0,7.0,49,-99.99,,,0.10,36.000000,,2013-02-03 16:33:00,
2013-02-03 09:42:00,33.0,16.0,-100.00,NNW,335,2.0,7.0,49,-99.99,,,0.10,36.000000,,2013-02-03 16:42:00,
2013-02-03 09:52:00,33.0,16.0,-100.00,NNW,335,2.0,7.0,49,-99.99,,,0.10,36.000000,,2013-02-03 16:52:00,
2013-02-03 10:02:00,37.0,19.0,-100.00,ENE,75,3.0,7.0,47,-99.99,,,0.10,113.000000,,2013-02-03 17:02:00,
2013-02-03 10:32:00,37.0,19.0,-100.00,ENE,75,3.0,7.0,47,-99.99,,,0.10,113.000000,,2013-02-03 17:32:00,
2013-02-03 10:42:00,37.0,19.0,-100.00,ENE,75,3.0,7.0,47,-99.99,,,0.10,113.000000,,2013-02-03 17:42:00,
2013-02-03 10:52:00,37.0,19.0,-100.00,ENE,75,3.0,7.0,47,-99.99,,,0.10,113.000000,,2013-02-03 17:52:00,
2013-02-03 11:23:00,40.0,19.0,-100.00,SSE,168,4.0,9.0,42,-99.99,,,-99.99,94.000000,,2013-02-03 18:23:00,
2013-02-03 11:33:00,40.0,19.0,-100.00,SSE,168,4.0,9.0,42,-99.99,,,-99.99,94.000000,,2013-02-03 18:33:00,
2013-02-03 11:42:00,40.0,19.0,-100.00,SSE,168,4.0,9.0,42,-99.99,,,-99.99,94.000000,,2013-02-03 18:42:00,
2013-02-03 11:52:00,40.0,19.0,-100.00,SSE,168,4.0,9.0,42,-99.99,,,-99.99,94.000000,,2013-02-03 18:52:00,
2013-02-03 12:01:00,40.0,19.0,-100.00,SSE,168,4.0,9.0,42,-99.99,,,-99.99,94.000000,,2013-02-03 19:01:00,
2013-02-03 12:32:00,43.0,23.0,-100.00,SE,140,4.0,13.0,45,-99.99,,,0.09,332.000000,,2013-02-03 19:32:00,
2013-02-03 12:42:00,43.0,23.0,-100.00,SE,140,4.0,13.0,45,-99.99,,,0.09,332.000000,,2013-02-03 19:42:00,
2013-02-03 12:52:00,43.0,23.0,-100.00,SE,140,4.0,13.0,45,-99.99,,,0.09,332.000000,,2013-02-03 19:52:00,
2013-02-03 13:01:00,43.0,23.0,-100.00,SE,140,4.0,13.0,45,-99.99,,,0.09,332.000000,,2013-02-03 20:01:00,
2013-02-03 13:02:00,45.0,23.0,-100.00,SE,125,5.0,8.0,42,0.00,,,0.06,505.000000,,2013-02-03 20:02:00,
2013-02-03 13:33:00,45.0,23.0,-100.00,SE,125,5.0,8.0,42,0.00,,,0.06,505.000000,,2013-02-03 20:33:00,
2013-02-03 13:42:00,45.0,23.0,-100.00,SE,125,5.0,8.0,42,0.00,,,0.06,505.000000,,2013-02-03 20:42:00,
2013-02-03 13:52:00,45.0,23.0,-100.00,SE,125,5.0,8.0,42,0.00,,,0.06,505.000000,,2013-02-03 20:52:00,
2013-02-03 14:33:00,45.0,23.0,-100.00,ESE,108,5.0,8.0,41,-99.99,,,0.03,486.000000,,2013-02-03 21:33:00,
2013-02-03 14:42:00,45.0,23.0,-100.00,ESE,108,5.0,8.0,41,-99.99,,,0.03,486.000000,,2013-02-03 21:42:00,
2013-02-03 14:52:00,45.0,23.0,-100.00,ESE,108,5.0,8.0,41,-99.99,,,0.03,486.000000,,2013-02-03 21:52:00,
2013-02-03 15:01:00,45.0,23.0,-100.00,ESE,108,5.0,8.0,41,-99.99,,,0.03,486.000000,,2013-02-03 22:01:00,
2013-02-03 15:32:00,41.0,20.0,-100.00,East,92,4.0,11.0,43,0.00,,,0.02,471.000000,,2013-02-03 22:32:00,
2013-02-03 15:42:00,41.0,20.0,-100.00,East,92,4.0,11.0,43,0.00,,,0.02,471.000000,,2013-02-03 22:42:00,
2013-02-03 15:52:00,41.0,20.0,-100.00,East,92,4.0,11.0,43,0.00,,,0.02,471.000000,,2013-02-03 22:52:00,
2013-02-03 16:01:00,41.0,20.0,-100.00,East,92,4.0,11.0,43,0.00,,,0.02,471.000000,,2013-02-03 23:01:00,
2013-02-03 16:32:00,37.0,22.0,-100.00,ENE,59,3.0,8.0,54,0.00,,,0.02,115.000000,,2013-02-03 23:32:00,
2013-02-03 16:42:00,37.0,22.0,-100.00,ENE,59,3.0,8.0,54,0.00,,,0.02,115.000000,,2013-02-03 23:42:00,
2013-02-03 16:52:00,37.0,22.0,-100.00,ENE,59,3.0,8.0,54,0.00,,,0.02,115.000000,,2013-02-03 23:52:00,
2013-02-03 17:01:00,37.0,22.0,-100.00,ENE,59,3.0,8.0,54,0.00,,,0.02,115.000000,,2013-02-04 00:01:00,
2013-02-03 17:32:00,34.0,21.0,-100.00,NNW,342,2.0,7.0,58,0.00,,,-99.99,26.000000,,2013-02-04 00:32:00,
2013-02-03 17:42:00,34.0,21.0,-100.00,NNW,342,2.0,7.0,58,0.00,,,-99.99,26.000000,,2013-02-04 00:42:00,
2013-02-03 17:52:00,34.0,21.0,-100.00,NNW,342,2.0,7.0,58,0.00,,,-99.99,26.000000,,2013-02-04 00:52:00,
2013-02-03 18:01:00,34.0,21.0,-100.00,NNW,342,2.0,7.0,58,0.00,,,-99.99,26.000000,,2013-02-04 01:01:00,
2013-02-03 18:22:00,31.0,20.0,-100.00,North,359,2.0,4.0,62,0.00,,,0.02,9.000000,,2013-02-04 01:22:00,
2013-02-03 18:32:00,31.0,20.0,-100.00,North,359,2.0,4.0,62,0.00,,,0.02,9.000000,,2013-02-04 01:32:00,
2013-02-03 18:42:00,31.0,20.0,-100.00,North,359,2.0,4.0,62,0.00,,,0.02,9.000000,,2013-02-04 01:42:00,
2013-02-03 18:52:00,31.0,20.0,-100.00,North,359,2.0,4.0,62,0.00,,,0.02,9.000000,,2013-02-04 01:52:00,
2013-02-03 19:01:00,31.0,20.0,-100.00,North,359,2.0,4.0,62,0.00,,,0.02,9.000000,,2013-02-04 02:01:00,
2013-02-03 19:22:00,31.0,20.0,-100.00,NNW,330,2.0,5.0,64,0.00,,,0.02,0.000000,,2013-02-04 02:22:00,
2013-02-03 19:32:00,31.0,20.0,-100.00,NNW,330,2.0,5.0,64,0.00,,,0.02,0.000000,,2013-02-04 02:32:00,
2013-02-03 19:42:00,31.0,20.0,-100.00,NNW,330,2.0,5.0,64,0.00,,,0.02,0.000000,,2013-02-04 02:42:00,
2013-02-03 19:52:00,31.0,20.0,-100.00,NNW,330,2.0,5.0,64,0.00,,,0.02,0.000000,,2013-02-04 02:52:00,
2013-02-03 20:01:00,31.0,20.0,-100.00,NNW,330,2.0,5.0,64,0.00,,,0.02,0.000000,,2013-02-04 03:01:00,
2013-02-03 20:32:00,31.0,19.0,-100.00,NNW,341,2.0,5.0,61,0.00,,,0.02,0.000000,,2013-02-04 03:32:00,
2013-02-03 20:42:00,31.0,19.0,-100.00,NNW,341,2.0,5.0,61,0.00,,,0.02,0.000000,,2013-02-04 03:42:00,
2013-02-03 20:52:00,31.0,19.0,-100.00,NNW,341,2.0,5.0,61,0.00,,,0.02,0.000000,,2013-02-04 03:52:00,
2013-02-03 21:01:00,31.0,19.0,-100.00,NNW,341,2.0,5.0,61,0.00,,,0.02,0.000000,,2013-02-04 04:01:00,
2013-02-03 21:02:00,31.0,16.0,-100.00,North,351,3.0,7.0,53,0.00,,,0.02,0.000000,,2013-02-04 04:02:00,
2013-02-03 21:32:00,31.0,16.0,-100.00,North,351,3.0,7.0,53,0.00,,,0.02,0.000000,,2013-02-04 04:32:00,
2013-02-03 21:42:00,31.0,16.0,-100.00,North,351,3.0,7.0,53,0.00,,,0.02,0.000000,,2013-02-04 04:42:00,
2013-02-03 21:52:00,31.0,16.0,-100.00,North,351,3.0,7.0,53,0.00,,,0.02,0.000000,,2013-02-04 04:52:00,
2013-02-03 22:22:00,31.0,17.0,-100.00,ENE,75,3.0,9.0,55,0.00,,,0.02,0.000000,,2013-02-04 05:22:00,
2013-02-03 22:33:00,31.0,17.0,-100.00,ENE,75,3.0,9.0,55,0.00,,,0.02,0.000000,,2013-02-04 05:33:00,
2013-02-03 22:42:00,31.0,17.0,-100.00,ENE,75,3.0,9.0,55,0.00,,,0.02,0.000000,,2013-02-04 05:42:00,
2013-02-03 22:52:00,31.0,17.0,-100.00,ENE,75,3.0,9.0,55,0.00,,,0.02,0.000000,,2013-02-04 05:52:00,
2013-02-03 23:01:00,31.0,17.0,-100.00,ENE,75,3.0,9.0,55,0.00,,,0.02,0.000000,,2013-02-04 06:01:00,
2013-02-03 23:21:00,30.0,17.0,-100.00,NNW,346,2.0,5.0,58,0.00,,,0.02,0.000000,,2013-02-04 06:21:00,
2013-02-03 23:32:00,30.0,17.0,-100.00,NNW,346,2.0,5.0,58,0.00,,,0.02,0.000000,,2013-02-04 06:32:00,
2013-02-03 23:42:00,30.0,17.0,-100.00,NNW,346,2.0,5.0,58,0.00,,,0.02,0.000000,,2013-02-04 06:42:00,
2013-02-03 23:52:00,30.0,17.0,-100.00,NNW,346,2.0,5.0,58,0.00,,,0.02,0.000000,,2013-02-04 06:52:00,